Location: La Trinit�
(48.1620°N, 3.4512°W)
Time: 14:56:24
(UTC+00:00)

ERS-1 Rocket - Pass Details

Date: 08 May 2021
Orbit: 753 x 757 km, 98.4° (Epoch: 24 June)

Event Time Altitude Azimuth Distance (km) Brightness Sun altitude
Exits shadow 20:50:52 14° 121° (ESE) 2,008 4.5 -10.9°
Maximum altitude 20:54:29 32° 64° (ENE) 1,276 4.0 -11.3°
Drops below altitude 10° 20:58:56 10° 3° (N) 2,294 6.1 -11.9°
Sets 21:01:26 0° 354° (N) 3,224 7.1 -12.2°
